Weather History for Watertown, NY

Change the Weather History Date:

Sunday, July 14, 2013

  Actual Average Record
Temperature  
Mean Temperature 77 °F 69 °F  
Max Temperature 86 °F 79 °F 91 °F (1952)
Min Temperature 67 °F 58 °F 49 °F (2003)
Degree Days  
Heating Degree Days 0 1  
Month to date heating degree days 0 15  
Since 1 June heating degree days 103 122  
Since 1 July heating degree days 0 15  
Cooling Degree Days 12 5  
Month to date cooling degree days 125 59  
Year to date cooling degree days 231 132  
Since 1 June cooling degree days 199 121  
Growing Degree Days 26 (Base 50)    
Moisture  
Dew Point 68 °F    
Average Humidity 76    
Maximum Humidity 97    
Minimum Humidity 55    
Precipitation  
Precipitation 0.00 in 0.08 in 1.01 in (1961)
Month to date precipitation 1.44 1.15  
Year to date precipitation 18.10 17.15  
Sea Level Pressure  
Sea Level Pressure 30.25 in    
Wind  
Wind Speed 4 mph (WSW)    
Max Wind Speed 13 mph    
Max Gust Speed 16 mph    
Visibility 10 miles    
Events      
T = Trace of Precipitation, MM = Missing Value Source: NWS Daily Summary

Daily Weather History Graph

Daily Weather History Graph

Search for Another Location

Airport:

Trip Planner

Search our weather history database for the weather conditions in past years. The results will help you decide how hot, cold, wet, or windy it might be!

Date:

Astronomy

Jul. 14, 2013 Rise Set
Actual Time 5:34 AM EDT 8:44 PM EDT
Civil Twilight 4:59 AM EDT 9:19 PM EDT
Nautical Twilight 4:14 AM EDT 10:04 PM EDT
Astronomical Twilight 3:19 AM EDT 10:59 PM EDT
Moon 12:04 PM EDT (7/14) 11:39 PM EDT (7/14)
Length of Visible Light 16h 20m
Length of Day
15h 10m
Waxing Crescent, 35% of the Moon is Illuminated
Jul 14
Waxing Crescent
Jul 15
First Quarter
Jul 22
Full
Jul 29
Last Quarter
Aug 6
New

Hourly Weather History & Observations

Time (EDT) Temp. Heat Index Dew Point Humidity Pressure Visibility Wind Dir Wind Speed Gust Speed Precip Events Conditions
12:56 AM 70.0 °F - 66.9 °F 90% 30.24 in 10.0 mi Calm Calm - N/A   Overcast
1:56 AM 70.0 °F - 68.0 °F 93% 30.24 in 10.0 mi Calm Calm - N/A   Clear
2:56 AM 68.0 °F - 66.0 °F 93% 30.25 in 10.0 mi Calm Calm - N/A   Scattered Clouds
3:56 AM 68.0 °F - 66.0 °F 93% 30.25 in 10.0 mi Calm Calm - N/A   Overcast
4:56 AM 68.0 °F - 66.0 °F 93% 30.26 in 10.0 mi Calm Calm - N/A   Overcast
5:56 AM 68.0 °F - 66.0 °F 93% 30.27 in 10.0 mi Calm Calm - N/A   Partly Cloudy
6:56 AM 73.9 °F - 69.1 °F 85% 30.27 in 10.0 mi Calm Calm - N/A   Clear
7:56 AM 77.0 °F - 70.0 °F 79% 30.28 in 10.0 mi SSW 4.6 mph - N/A   Clear
8:56 AM 79.0 °F - 71.1 °F 77% 30.29 in 10.0 mi West 5.8 mph - N/A   Scattered Clouds
9:56 AM 80.1 °F 83.6 °F 71.1 °F 74% 30.29 in 10.0 mi West 8.1 mph - N/A   Mostly Cloudy
10:56 AM 81.0 °F 84.4 °F 70.0 °F 69% 30.28 in 10.0 mi West 8.1 mph - N/A   Clear
11:56 AM 82.0 °F 86.7 °F 72.0 °F 71% 30.28 in 10.0 mi West 9.2 mph - N/A   Clear
12:56 PM 82.9 °F 87.5 °F 71.1 °F 67% 30.27 in 10.0 mi West 9.2 mph - N/A   Clear
1:56 PM 82.9 °F 87.5 °F 71.1 °F 67% 30.27 in 10.0 mi West 11.5 mph - N/A   Clear
2:56 PM 84.9 °F 89.4 °F 70.0 °F 61% 30.26 in 10.0 mi West 11.5 mph - N/A   Clear
3:56 PM 84.0 °F 87.8 °F 69.1 °F 61% 30.25 in 10.0 mi SW 9.2 mph - N/A   Clear
4:56 PM 84.9 °F 88.8 °F 69.1 °F 59% 30.24 in 10.0 mi WSW 8.1 mph - N/A   Clear
5:56 PM 84.9 °F 87.1 °F 66.0 °F 53% 30.23 in 10.0 mi WSW 6.9 mph - N/A   Clear
6:56 PM 84.0 °F 86.5 °F 66.9 °F 56% 30.23 in 10.0 mi West 5.8 mph - N/A   Clear
7:56 PM 81.0 °F 83.8 °F 68.0 °F 65% 30.22 in 10.0 mi Calm Calm - N/A   Clear
8:56 PM 73.0 °F - 68.0 °F 84% 30.22 in 10.0 mi Calm Calm - N/A   Clear
9:56 PM 70.0 °F - 66.9 °F 90% 30.23 in 10.0 mi Calm Calm - N/A   Clear
10:56 PM 68.0 °F - 64.9 °F 90% 30.22 in 8.0 mi Calm Calm - N/A   Clear
11:56 PM 69.1 °F - 66.0 °F 90% 30.22 in 8.0 mi Calm Calm - N/A   Clear